Weather in Konyaalti

Turkey     36°53′24″N   30°37′52″E
temp.,
°C
wind,
m/s
gust,
m/s
humid.,
%
clouds,
%
prec.,
mm/h
press.,
hPa
HPBL,
m
10 august, wed
wed1000:00+25nne22821 0.0 1006205
03:00+25ne118217 0.0 1005184
06:00+24nne01833 0.0 1004155
09:00+29sse21623 0.0 1005694
12:00+33s53480 0.0 10041274
15:00+33s65490 0.0 10041135
18:00+30s435718 0.0 10041139
21:00+27s117138 0.3 1005344
11 august, thu
thu1100:00+26nne127426 0.1 1005218
03:00+27nw22572 0.1 1003120
06:00+26nw225630 0.0 100456
09:00+30wnw024169 0.0 1005657
12:00+34s43354 0.0 10051654
15:00+33s54430 0.0 1005966
18:00+32se33460 0.0 10061050
21:00+28e11626 0.3 1006220
12 august, fri
fri1200:00+26n11660 0.0 1006148
03:00+26nnw22590 0.0 100582
06:00+26nnw11520 0.0 100632
09:00+30ne12380 0.0 1007594
12:00+35s43270 0.0 10061453
15:00+35s54350 0.0 1005840
18:00+32sse43430 0.0 1005794
21:00+28se22650 0.0 1006366
13 august, sat
sat1300:00+26n22730 0.0 1006201
03:00+26nw12660 0.0 100598
06:00+25e01642 0.0 100459
09:00+30sse21480 0.0 1005507
12:00+34sse53400 0.0 10041063
15:00+34sse55460 0.0 1003968
18:00+31sse44520 0.0 1003939
21:00+27ese22702 0.0 1004332
14 august, sun
sun1400:00+26n12751 0.0 1003186
03:00+26wnw11700 0.0 1002100
06:00+25sse11710 0.0 1002123
09:00+29se21610 0.0 1003721
12:00+33s54490 0.0 10031278
15:00+33sse55460 0.0 10031184
18:00+31sse44520 0.0 1002989
21:00+27e22756 0.0 1004392